Theta_e
331 330 332 334 334 332 331 332 333 334 337 335 336 339 342 341 345 347 349 349 349 348 348 347 348 348 349 351 355 355 353 354
332 330 330 330 333 333 331 335 340 338 337 339 342 341 341 342 344 348 349 350 350 350 349 349 349 349 350 350 354 355 353 354
332 331 332 332 331 332 332 336 339 337 341 339 340 338 341 344 343 346 346 349 350 350 350 349 349 349 350 350 351 354 354 352
335 333 334 335 334 332 335 336 337 339 337 339 337 341 342 343 343 344 345 348 349 350 351 349 350 350 350 351 351 352 353 353
337 336 333 331 331 332 333 333 337 338 342 339 339 341 342 343 343 344 344 349 347 350 353 352 350 352 352 351 351 351 353 353
333 338 335 335 332 333 333 334 335 335 340 340 339 341 342 343 344 342 345 347 352 347 349 352 351 352 353 352 352 352 352 352
332 336 334 333 331 330 334 333 335 334 335 335 338 338 342 343 345 343 345 345 347 350 352 347 350 351 353 353 353 353 354 354
333 333 332 330 330 328 329 332 333 333 334 333 337 338 338 343 343 344 342 341 342 345 347 349 347 350 353 352 354 356 355 355
334 334 331 332 330 329 329 330 331 333 332 332 337 339 340 343 341 339 338 340 340 344 347 349 348 347 346 348 348 354 356 355
334 333 334 333 329 329 329 329 330 330 331 336 337 339 341 339 336 338 339 340 344 344 346 348 348 347 347 344 343 346 349 353
334 333 331 332 330 330 329 329 329 329 330 332 335 340 341 336 337 338 340 341 342 342 345 347 346 347 346 347 348 347 346 349
334 333 333 333 330 329 328 331 330 330 330 334 339 343 343 338 337 337 338 339 340 341 342 343 345 345 345 346 347 347 348 348
335 335 332 330 329 329 332 336 335 331 331 336 340 340 340 337 337 337 337 338 339 339 339 341 342 343 343 344 345 346 349 346
333 335 334 330 329 332 336 335 335 333 334 339 343 340 339 338 338 337 337 337 337 338 339 340 341 341 343 344 346 347 347 346
331 334 338 333 330 332 331 332 336 338 338 341 342 338 338 338 336 336 335 335 333 333 337 340 340 340 342 344 342 345 345 344
331 330 330 331 331 329 331 330 334 336 337 339 336 337 336 335 334 335 335 336 334 334 336 338 339 339 340 341 340 339 343 342
331 331 332 333 331 331 332 330 332 332 335 336 335 334 333 333 334 334 336 337 336 336 336 337 338 339 339 339 338 338 338 338
331 333 334 335 332 331 332 332 332 333 333 333 332 332 333 334 336 336 337 339 339 339 338 337 338 338 338 337 336 333 332 333
332 332 330 331 333 329 333 333 332 332 334 336 336 334 334 339 338 340 339 341 340 340 338 338 337 337 337 337 336 332 331 329
Wind_Speed
12 12 11 5 6 10 11 6 7 4 6 9 8 8 8 5 6 2 2 0 9 11 22 20 20 22 21 23 22 22 22 19
12 11 12 13 12 8 8 4 8 5 6 7 12 8 7 5 6 4 3 3 1 4 11 16 21 23 22 22 23 23 21 20
10 12 17 11 13 11 12 5 6 5 7 9 7 4 8 8 2 7 1 0 2 4 8 14 18 22 24 22 22 21 22 21
21 8 4 12 10 14 9 9 7 6 3 13 9 9 3 9 6 8 4 3 2 3 5 9 10 15 16 25 23 22 21 21
7 16 12 10 14 14 13 14 4 8 6 8 9 9 6 9 8 7 4 5 3 4 5 2 8 6 6 11 18 21 21 21
11 9 2 9 12 6 12 10 10 12 15 11 10 7 7 7 4 5 5 4 8 3 3 5 6 7 9 10 12 13 16 22
15 22 13 10 7 8 12 14 15 6 4 7 11 8 9 7 9 5 5 5 5 6 5 2 3 8 9 11 12 15 15 15
17 21 18 10 9 10 13 12 13 13 11 3 11 6 5 9 9 7 6 4 3 3 3 7 4 0 1 4 8 9 15 17
17 17 15 13 12 15 14 13 12 12 9 9 9 7 8 10 9 7 5 4 2 1 1 4 8 8 3 1 2 2 7 13
13 15 18 14 9 7 11 11 11 10 10 8 5 8 8 10 11 8 6 5 4 2 3 4 7 6 5 4 4 6 5 6
14 15 13 16 9 8 12 12 12 14 10 8 8 12 10 8 8 8 7 5 5 3 3 2 2 2 3 4 6 5 9 10
9 17 19 18 8 10 3 10 14 14 13 12 11 11 11 13 10 9 8 8 6 4 2 2 2 5 7 7 6 5 3 6
14 14 11 12 11 3 8 2 7 2 10 11 13 3 17 15 10 9 8 8 5 3 2 2 2 3 5 7 9 4 3 3
16 18 17 5 3 10 4 2 3 4 9 12 13 13 12 11 10 10 9 8 5 3 2 2 2 4 5 5 5 6 4 3
5 12 9 3 11 7 7 2 3 6 8 12 11 11 11 10 10 8 9 6 3 1 3 0 1 2 5 2 4 5 4 2
6 4 8 10 12 6 6 7 8 10 12 13 11 11 11 10 8 8 8 7 5 3 1 1 0 1 1 2 3 4 7 4
14 17 8 13 9 6 7 8 7 6 11 12 12 12 11 7 6 7 8 8 6 4 3 1 1 1 2 1 1 3 4 3
9 11 8 14 8 7 7 9 8 8 8 6 5 4 6 5 8 8 9 9 8 7 5 3 2 2 2 2 3 3 4 5
14 17 16 16 17 9 8 10 9 8 10 10 5 5 6 5 8 8 9 11 10 8 6 4 3 2 1 2 4 5 5 6
Wind_Direction
202 228 246 269 244 316 314 247 277 185 124 162 126 156 164 186 105 149 47 20 207 200 190 211 191 191 196 185 198 195 196 197
189 234 249 274 309 218 235 263 255 69 204 150 169 145 183 159 168 122 132 152 250 249 249 193 198 197 196 196 197 203 196 197
154 210 237 197 239 252 264 246 277 250 67 79 87 144 170 117 113 104 99 325 227 273 232 228 214 193 193 197 199 202 204 197
215 182 152 280 260 237 237 206 316 326 21 103 114 120 133 121 146 125 90 88 164 136 217 229 218 232 194 190 202 202 206 204
175 190 204 237 238 257 269 287 238 282 107 106 124 141 150 163 158 159 144 127 54 52 86 242 214 249 218 248 207 205 204 205
245 51 211 218 224 233 266 261 242 236 135 165 144 150 165 183 158 173 155 159 126 130 78 164 195 204 223 234 245 261 221 209
284 178 271 235 271 279 220 261 278 334 247 105 121 154 178 190 162 179 163 174 150 148 152 196 215 217 216 221 222 226 242 251
232 253 197 251 268 258 269 248 256 269 279 58 122 141 185 174 168 178 168 160 172 170 163 161 186 47 206 242 229 224 220 237
253 242 261 225 245 259 245 236 240 256 239 265 135 173 182 165 172 165 154 139 160 132 186 140 175 175 171 276 321 281 241 241
245 240 243 246 269 304 246 239 236 233 259 160 205 172 175 169 160 154 152 145 140 146 134 150 179 189 168 212 247 263 283 284
239 253 252 241 194 214 241 252 265 270 258 188 212 150 167 173 152 144 141 129 111 95 93 141 200 209 215 233 197 207 243 254
223 252 246 266 253 195 185 266 258 238 247 166 179 193 175 166 146 141 145 142 145 121 132 179 181 252 255 251 231 276 253 241
227 235 258 250 115 155 230 11 344 214 221 159 191 199 128 145 141 142 135 143 134 131 75 32 322 315 288 285 275 273 278 232
235 245 239 358 116 219 53 27 37 238 171 169 118 130 136 140 146 143 143 140 168 141 90 71 12 328 297 278 263 248 247 65
242 218 348 195 241 191 263 275 153 158 156 147 148 150 151 151 157 156 159 159 150 120 131 123 14 324 314 270 326 281 208 123
257 308 257 237 273 232 187 249 193 165 153 145 176 165 166 163 172 165 173 178 190 180 161 319 14 273 277 307 289 267 251 162
230 216 309 274 277 238 204 240 190 170 153 175 186 173 178 173 184 185 193 197 195 202 205 194 243 244 243 189 210 196 213 205
241 265 237 288 292 227 224 202 208 174 164 172 191 178 176 195 196 220 203 199 200 209 225 214 228 215 186 173 150 173 187 189
234 226 259 261 277 204 238 206 194 193 167 172 183 224 215 214 217 213 222 203 203 217 226 237 264 221 197 210 164 159 165 171